Weather History for KUVA - July, 2013

Change the Weather History Date:

Monday, July 15, 2013

  Actual Average (KHDO) Record (KHDO)
Temperature  
Mean Temperature 80 °F -  
Max Temperature 88 °F 93 °F 105 °F (2000)
Min Temperature 75 °F 70 °F 62 °F (2004)
Cooling Degree Days 15    
Growing Degree Days 30 (Base 50)    
Moisture  
Dew Point 70 °F    
Average Humidity 75    
Maximum Humidity 83    
Minimum Humidity 51    
Precipitation  
Precipitation 0.00 in - - ()
Sea Level Pressure  
Sea Level Pressure 29.91 in    
Wind  
Wind Speed 9 mph (ESE)    
Max Wind Speed 15 mph    
Max Gust Speed 20 mph    
Visibility 10 miles    
Events Rain , Thunderstorm    
Averages and records for this station are not official NWS values.
T = Trace of Precipitation, MM = Missing Value Source: NWS Daily Summary

Daily Weather History Graph

Daily Weather History Graph

Search for Another Location

Airport or City:

Trip Planner

Search our weather history database for the weather conditions in past years. The results will help you decide how hot, cold, wet, or windy it might be!

Date:

Astronomy

Jul. 15, 2013 Rise Set
Actual Time 6:49 AM CDT 8:39 PM CDT
Civil Twilight 6:23 AM CDT 9:06 PM CDT
Nautical Twilight 5:51 AM CDT 9:38 PM CDT
Astronomical Twilight 5:17 AM CDT 10:12 PM CDT
Moon 1:32 PM CDT (7/15) 12:28 AM CDT (7/15)
Length of Visible Light 14h 42m
Length of Day
13h 49m
Waxing Crescent, 45% of the Moon is Illuminated
Jul 15
Waxing Crescent
Jul 15
First Quarter
Jul 22
Full
Jul 29
Last Quarter
Aug 6
New

Hourly Weather History & Observations

Time (CDT) Temp. Heat Index Dew Point Humidity Pressure Visibility Wind Dir Wind Speed Gust Speed Precip Events Conditions
12:15 AM 85.5 °F 87.4 °F 65.3 °F 51% 29.86 in 10.0 mi SE 13.8 mph 19.6 mph N/A   Clear
12:55 AM 82.4 °F 84.4 °F 66.0 °F 57% 29.86 in 10.0 mi SE 13.8 mph 17.3 mph N/A   Clear
2:15 AM 80.6 °F 83.6 °F 69.3 °F 68% 29.86 in 10.0 mi SE 15.0 mph - N/A   Clear
2:35 AM 80.4 °F 83.6 °F 69.8 °F 70% 29.87 in 10.0 mi SE 10.4 mph 16.1 mph N/A   Clear
2:55 AM 79.7 °F - 69.6 °F 71% 29.87 in 10.0 mi SE 11.5 mph - N/A   Scattered Clouds
3:15 AM 79.2 °F - 69.8 °F 73% 29.86 in 10.0 mi SE 11.5 mph 18.4 mph N/A   Mostly Cloudy
3:35 AM 79.2 °F - 70.5 °F 75% 29.86 in 10.0 mi SE 11.5 mph - N/A   Light Drizzle
3:55 AM 78.4 °F - 70.7 °F 77% 29.85 in 10.0 mi SE 10.4 mph 17.3 mph N/A   Scattered Clouds
4:35 AM 78.1 °F - 70.7 °F 78% 29.86 in 10.0 mi ESE 3.5 mph - N/A   Clear
4:55 AM 77.9 °F - 70.9 °F 79% 29.86 in 10.0 mi SE 8.1 mph - N/A   Clear
5:15 AM 77.9 °F - 71.1 °F 79% 29.88 in 10.0 mi ESE 6.9 mph - N/A   Scattered Clouds
5:35 AM 77.9 °F - 71.2 °F 80% 29.88 in 10.0 mi Calm Calm - N/A   Scattered Clouds
5:55 AM 77.9 °F - 71.6 °F 81% 29.87 in 10.0 mi SE 12.7 mph - N/A   Scattered Clouds
6:55 AM 77.9 °F - 72.0 °F 82% 29.89 in 10.0 mi Calm Calm - N/A   Mostly Cloudy
7:15 AM 77.9 °F - 71.8 °F 81% 29.90 in 10.0 mi Calm Calm - N/A   Mostly Cloudy
7:35 AM 77.9 °F - 71.8 °F 81% 29.90 in 10.0 mi Calm Calm - N/A   Overcast
7:55 AM 77.9 °F - 71.8 °F 81% 29.91 in 10.0 mi Calm Calm - N/A   Mostly Cloudy
11:55 AM 79.2 °F - 72.7 °F 80% 29.96 in 10.0 mi Calm Calm - N/A Rain Light Rain
12:15 PM 79.2 °F - 72.5 °F 80% 29.97 in 10.0 mi Calm Calm - N/A Rain Light Rain
6:35 PM 85.1 °F 91.5 °F 72.7 °F 66% 29.91 in 10.0 mi ENE 15.0 mph 18.4 mph N/A   Clear
7:15 PM 79.2 °F - 70.3 °F 74% 29.93 in 10.0 mi ENE 11.5 mph 16.1 mph N/A   Clear
7:35 PM 78.6 °F - 70.2 °F 75% 29.94 in 10.0 mi East 6.9 mph - N/A Thunderstorm Clear
7:55 PM 79.2 °F - 69.6 °F 72% 29.94 in 10.0 mi East 10.4 mph 18.4 mph N/A   Clear
8:15 PM 77.9 °F - 68.4 °F 72% 29.95 in 10.0 mi East 5.8 mph 18.4 mph N/A   Clear
8:55 PM 77.9 °F - 68.5 °F 73% 29.97 in 10.0 mi Calm Calm - N/A   Clear
9:55 PM 77.7 °F - 70.9 °F 79% 29.98 in 10.0 mi ENE 9.2 mph - N/A   Clear
10:55 PM 75.4 °F - 69.3 °F 81% 29.99 in 10.0 mi Calm Calm - N/A   Clear
11:15 PM 75.4 °F - 70.0 °F 83% 29.99 in 10.0 mi Calm Calm - N/A   Clear
11:55 PM 75.4 °F - 69.8 °F 83% 30.01 in 10.0 mi Calm Calm - N/A   Clear